Lid_Strength_Index
3 2 3 2 2 1 2 2 2 1 1 1 1 1 1 1 1 1 1 1 2 2 1 2 2 1 2 2 3 4 4 5 6 5 3 3 3 2 2 2 2 2 3
3 3 3 2 2 3 3 3 3 3 1 1 1 1 1 1 1 1 2 1 2 2 2 2 2 1 2 2 3 4 4 5 6 6 4 4 4 3 3 2 1 1 2
3 2 2 2 3 3 3 2 2 1 2 2 1 1 1 1 1 1 1 1 2 2 1 2 2 2 2 2 3 4 4 4 6 5 5 5 4 4 3 3 3 4 3
4 4 4 4 3 3 2 2 2 2 2 2 2 1 1 1 1 1 1 1 1 1 1 1 1 2 2 2 4 4 4 4 6 5 5 5 5 4 3 4 4 4 4
3 3 4 4 3 2 2 2 2 2 1 1 2 2 1 1 1 1 1 1 2 2 1 1 1 2 4 3 2 4 4 5 5 5 5 5 5 5 4 4 4 4 3
4 4 4 3 3 3 3 3 2 2 2 2 1 1 2 2 4 4 3 2 1 2 2 2 2 2 4 8 7 6 4 4 5 5 5 5 6 5 4 4 4 4 5
4 3 3 3 3 3 3 2 3 3 3 2 2 2 3 2 5 5 5 3 2 2 2 2 2 1 5 4 7 6 6 7 5 4 5 5 5 4 4 5 5 4 3
3 3 3 3 3 3 3 4 4 4 4 3 3 2 2 2 5 6 5 2 2 2 1 2 2 2 3 3 3 4 4 5 4 3 3 3 3 3 3 3 3 4 2
3 3 3 3 4 4 4 4 4 4 4 3 3 3 3 2 5 6 5 2 2 2 1 1 1 2 8 10 3 3 5 5 9 8 7 8 9 8 5 3 4 4 4
4 3 3 3 4 4 4 4 4 4 4 3 3 3 3 4 6 6 5 3 3 2 2 1 4 3 10 10 3 4 5 6 5 5 5 7 7 7 8 2 3 4 5
3 3 3 3 3 3 3 3 3 4 4 4 3 3 3 3 4 7 7 4 3 3 2 2 2 11 11 10 8 3 5 5 6 4 4 4 4 4 4 3 3 4 5
4 4 4 4 3 3 4 4 3 3 4 4 4 4 3 3 5 6 7 7 5 2 3 2 2 11 11 11 8 11 11 7 4 4 4 5 4 4 4 3 3 3 2
5 5 5 4 4 4 4 4 4 4 4 5 5 5 4 3 3 5 6 7 8 5 2 3 8 12 11 11 11 11 10 4 4 4 4 4 3 3 2 3 3 3 3
7 7 6 7 6 5 5 5 6 6 6 6 6 6 5 4 4 3 2 2 7 5 5 6 8 8 8 6 9 7 2 3 3 3 3 3 2 2 2 2 3 4 4
8 8 8 7 7 7 6 6 6 5 5 5 5 5 5 5 4 4 3 2 2 5 6 7 6 5 4 5 5 4 3 4 3 4 4 4 4 3 3 2 2 3 3
10 9 8 7 6 6 5 6 8 7 7 8 8 6 4 6 6 7 9 10 11 10 5 4 4 4 4 5 5 5 5 5 3 3 4 4 4 3 3 3 3 3 4
9 8 7 7 6 6 6 5 6 7 8 9 9 9 8 6 10 11 11 12 12 8 3 3 4 4 4 4 5 5 6 4 3 3 3 4 4 4 4 3 3 3 3
9 10 8 7 7 4 4 4 4 5 6 6 9 8 10 10 12 12 12 9 4 3 3 3 4 4 4 4 4 5 4 4 3 3 3 3 3 3 3 3 3 4 4
9 9 8 7 6 5 5 5 5 5 4 5 7 10 11 11 12 11 9 3 3 3 4 4 3 4 4 4 4 3 3 4 4 3 3 2 3 3 3 3 3 8 6
10 11 11 8 4 4 4 4 4 4 4 6 6 7 7 6 3 3 3 3 3 3 3 3 3 3 2 2 3 2 3 3 3 3 3 2 2 3 4 3 3 3 3
12 11 12 3 4 4 4 4 4 4 4 6 5 6 11 3 4 4 4 4 4 3 3 3 3 3 3 2 2 2 3 3 3 3 3 2 2 3 4 3 2 3 3
13 11 8 3 3 3 4 3 3 5 5 7 7 9 12 7 8 8 8 8 7 6 5 5 5 5 4 4 2 2 3 3 3 3 4 4 3 4 4 4 3 3 4
13 10 3 3 3 7 4 4 5 7 7 7 8 8 9 9 10 10 11 10 10 9 9 7 7 7 7 7 5 3 2 3 4 2 4 4 4 4 3 3 3 3 4
11 8 3 3 4 5 7 8 9 10 9 9 10 11 11 12 12 12 12 12 12 12 12 11 11 10 9 9 8 7 5 3 3 3 3 3 4 5 3 4 4 4 5
8 3 4 5 6 7 8 9 10 10 10 11 12 13 13 13 13 13 13 13 13 14 14 13 12 12 12 11 10 9 13 14 7 10 5 5 6 6 6 6 7 7 6
4 5 6 6 7 8 10 11 11 11 12 12 13 13 14 14 14 14 14 14 14 15 15 15 15 14 14 14 14 15 15 14 11 13 7 7 8 8 8 9 9 9 9